| time (UTC) | temp F | wind direction | speed MPH | gust MPH | rain 1hr in | rain 24hr in | rain mn in | humidity % | barometer mb |
| 20260906003156 | 98 | 168 | 0.0 | 0.0 | 0.00 | 0.00 | 0.00 | 36 | 1005.7 |
| 20260906002649 | 98 | 168 | 0.0 | 0.0 | 0.00 | 0.00 | 0.00 | 35 | 1005.7 |
| 20260906001918 | 98 | 168 | 0.0 | 0.0 | 0.00 | 0.00 | 0.00 | 34 | 1005.7 |
| 20260906001412 | 98 | 168 | 0.0 | 0.0 | 0.00 | 0.00 | 0.00 | 35 | 1005.7 |
| 20260906000908 | 98 | 168 | 0.0 | 0.0 | 0.00 | 0.00 | 0.00 | 34 | 1005.7 |
| 20260906000407 | 99 | 168 | 0.0 | 0.0 | 0.00 | 0.00 | 0.00 | 34 | 1005.7 |
| 20260905235906 | 99 | 168 | 0.0 | 0.0 | 0.00 | 0.00 | 0.00 | 34 | 1005.6 |
| 20260905235405 | 99 | 168 | 0.0 | 0.0 | 0.00 | 0.00 | 0.00 | 34 | 1005.6 |
| 20260905235123 | 100 | 168 | 0.0 | 0.0 | 0.00 | 0.00 | 0.00 | 34 | 1005.6 |
| 20260905234403 | 100 | 168 | 0.0 | 0.0 | 0.00 | 0.00 | 0.00 | 34 | 1005.5 |
| 20260905233902 | 100 | 168 | 0.0 | 0.0 | 0.00 | 0.00 | 0.00 | 34 | 1005.5 |
| 20260905233403 | 100 | 168 | 0.0 | 0.0 | 0.00 | 0.00 | 0.00 | 34 | 1005.5 |
| 20260905233133 | 100 | 168 | 0.0 | 0.0 | 0.00 | 0.00 | 0.00 | 34 | 1005.5 |
| 20260905232402 | 100 | 168 | 0.0 | 0.0 | 0.00 | 0.00 | 0.00 | 33 | 1005.4 |
| 20260905231901 | 101 | 169 | 0.0 | 0.0 | 0.00 | 0.00 | 0.00 | 33 | 1005.4 |
| 20260905231402 | 101 | 174 | 0.0 | 1.0 | 0.00 | 0.00 | 0.00 | 32 | 1005.3 |
| 20260905230901 | 101 | 173 | 0.0 | 1.0 | 0.00 | 0.00 | 0.00 | 32 | 1005.4 |
| 20260905230401 | 101 | 175 | 0.0 | 0.0 | 0.00 | 0.00 | 0.00 | 32 | 1005.4 |
| 20260905225901 | 101 | 175 | 0.0 | 0.0 | 0.00 | 0.00 | 0.00 | 31 | 1005.4 |
| 20260905225400 | 101 | 175 | 0.0 | 0.0 | 0.00 | 0.00 | 0.00 | 32 | 1005.4 |
| 20260905224901 | 102 | 175 | 0.0 | 0.0 | 0.00 | 0.00 | 0.00 | 32 | 1005.5 |
| 20260905224401 | 102 | 175 | 0.0 | 0.0 | 0.00 | 0.00 | 0.00 | 32 | 1005.4 |
| 20260905224125 | 102 | 176 | 0.0 | 3.0 | 0.00 | 0.00 | 0.00 | 32 | 1005.4 |
| 20260905223626 | 102 | 176 | 0.0 | 3.0 | 0.00 | 0.00 | 0.00 | 32 | 1005.5 |
| 20260905222902 | 102 | 177 | 0.0 | 2.0 | 0.00 | 0.00 | 0.00 | 32 | 1005.4 |
| 20260905222402 | 102 | 168 | 0.0 | 2.0 | 0.00 | 0.00 | 0.00 | 32 | 1005.4 |
| 20260905221901 | 102 | 172 | 0.0 | 0.0 | 0.00 | 0.00 | 0.00 | 32 | 1005.4 |
| 20260905221401 | 102 | 172 | 0.0 | 1.0 | 0.00 | 0.00 | 0.00 | 32 | 1005.5 |
| 20260905220901 | 102 | 169 | 0.0 | 4.0 | 0.00 | 0.00 | 0.00 | 32 | 1005.5 |
| 20260905220401 | 102 | 171 | 0.0 | 4.0 | 0.00 | 0.00 | 0.00 | 32 | 1005.5 |
| 20260905215901 | 101 | 171 | 0.0 | 2.0 | 0.00 | 0.00 | 0.00 | 32 | 1005.5 |
| 20260905215401 | 102 | 117 | 0.0 | 2.0 | 0.00 | 0.00 | 0.00 | 32 | 1005.6 |
| 20260905214902 | 102 | 179 | 0.0 | 0.0 | 0.00 | 0.00 | 0.00 | 33 | 1005.6 |
| 20260905214401 | 102 | 179 | 0.0 | 0.0 | 0.00 | 0.00 | 0.00 | 33 | 1005.7 |
| 20260905213901 | 102 | 175 | 0.0 | 0.0 | 0.00 | 0.00 | 0.00 | 33 | 1005.7 |
| 20260905213401 | 102 | 169 | 0.0 | 0.0 | 0.00 | 0.00 | 0.00 | 33 | 1005.7 |
| 20260905212901 | 102 | 168 | 0.0 | 1.0 | 0.00 | 0.00 | 0.00 | 33 | 1005.8 |
| 20260905212400 | 102 | 167 | 0.0 | 1.0 | 0.00 | 0.00 | 0.00 | 32 | 1005.9 |
| 20260905211901 | 102 | 166 | 0.0 | 1.0 | 0.00 | 0.00 | 0.00 | 33 | 1006.0 |
| 20260905211400 | 101 | 165 | 0.0 | 1.0 | 0.00 | 0.00 | 0.00 | 33 | 1006.0 |
| 20260905210902 | 101 | 166 | 0.0 | 9.0 | 0.00 | 0.00 | 0.00 | 33 | 1006.1 |
| 20260905210622 | 101 | 166 | 0.0 | 9.0 | 0.00 | 0.00 | 0.00 | 33 | 1006.1 |
| 20260905205901 | 101 | 171 | 0.0 | 6.0 | 0.00 | 0.00 | 0.00 | 34 | 1006.2 |
| 20260905205401 | 101 | 169 | 0.0 | 2.0 | 0.00 | 0.00 | 0.00 | 33 | 1006.3 |
| 20260905204901 | 101 | 168 | 0.0 | 8.0 | 0.00 | 0.00 | 0.00 | 34 | 1006.5 |
| 20260905204401 | 101 | 175 | 0.0 | 8.0 | 0.00 | 0.00 | 0.00 | 34 | 1006.5 |
| 20260905203901 | 102 | 167 | 0.0 | 6.0 | 0.00 | 0.00 | 0.00 | 34 | 1006.5 |
| 20260905203401 | 102 | 149 | 0.0 | 2.0 | 0.00 | 0.00 | 0.00 | 34 | 1006.6 |
| 20260905202901 | 102 | 197 | 0.0 | 2.0 | 0.00 | 0.00 | 0.00 | 34 | 1006.7 |
| 20260905202401 | 102 | 180 | 0.0 | 1.0 | 0.00 | 0.00 | 0.00 | 34 | 1006.7 |
| 20260905201902 | 102 | 182 | 0.0 | 1.0 | 0.00 | 0.00 | 0.00 | 33 | 1006.8 |
| 20260905201400 | 102 | 181 | 0.0 | 5.0 | 0.00 | 0.00 | 0.00 | 33 | 1007.0 |
| 20260905200901 | 102 | 178 | 0.0 | 5.0 | 0.00 | 0.00 | 0.00 | 33 | 1006.9 |
| 20260905200402 | 102 | 135 | 0.0 | 5.0 | 0.00 | 0.00 | 0.00 | 34 | 1007.0 |
| 20260905195902 | 102 | 185 | 0.0 | 2.0 | 0.00 | 0.00 | 0.00 | 34 | 1007.2 |
| 20260905195400 | 102 | 165 | 0.0 | 2.0 | 0.00 | 0.00 | 0.00 | 33 | 1007.3 |
| 20260905194854 | 102 | 172 | 0.0 | 7.0 | 0.00 | 0.00 | 0.00 | 32 | 1007.3 |
| 20260905194348 | 102 | 188 | 0.0 | 7.0 | 0.00 | 0.00 | 0.00 | 34 | 1007.3 |
| 20260905193844 | 102 | 166 | 0.0 | 1.0 | 0.00 | 0.00 | 0.00 | 34 | 1007.4 |
| 20260905193347 | 102 | 167 | 0.0 | 3.0 | 0.00 | 0.00 | 0.00 | 34 | 1007.5 |
| 20260905192844 | 101 | 171 | 0.0 | 5.0 | 0.00 | 0.00 | 0.00 | 34 | 1007.6 |
| 20260905192344 | 101 | 176 | 0.0 | 5.0 | 0.00 | 0.00 | 0.00 | 35 | 1007.6 |
| 20260905191844 | 101 | 182 | 0.0 | 7.0 | 0.00 | 0.00 | 0.00 | 34 | 1007.8 |
| 20260905191342 | 101 | 167 | 0.0 | 7.0 | 0.00 | 0.00 | 0.00 | 34 | 1007.9 |
| 20260905190840 | 101 | 168 | 0.0 | 3.0 | 0.00 | 0.00 | 0.00 | 34 | 1007.9 |
| 20260905190340 | 101 | 178 | 0.0 | 6.0 | 0.00 | 0.00 | 0.00 | 35 | 1008.0 |
| 20260905185841 | 101 | 167 | 0.0 | 6.0 | 0.00 | 0.00 | 0.00 | 35 | 1008.1 |
| 20260905185342 | 101 | 140 | 0.0 | 3.0 | 0.00 | 0.00 | 0.00 | 33 | 1008.1 |
| 20260905184836 | 101 | 156 | 0.0 | 1.0 | 0.00 | 0.00 | 0.00 | 35 | 1008.1 |
| 20260905184556 | 101 | 219 | 0.0 | 0.0 | 0.00 | 0.00 | 0.00 | 36 | 1008.2 |
| 20260905183833 | 100 | 223 | 0.0 | 1.0 | 0.00 | 0.00 | 0.00 | 36 | 1008.2 |
| 20260905183554 | 100 | 223 | 0.0 | 5.0 | 0.00 | 0.00 | 0.00 | 36 | 1008.2 |
| 20260905182829 | 100 | 172 | 0.0 | 5.0 | 0.00 | 0.00 | 0.00 | 35 | 1008.3 |
| 20260905182330 | 101 | 169 | 0.0 | 3.0 | 0.00 | 0.00 | 0.00 | 35 | 1008.3 |
| 20260905181829 | 100 | 175 | 0.0 | 5.0 | 0.00 | 0.00 | 0.00 | 36 | 1008.4 |
| 20260905181330 | 100 | 181 | 0.0 | 5.0 | 0.00 | 0.00 | 0.00 | 36 | 1008.4 |
| 20260905181055 | 100 | 167 | 0.0 | 1.0 | 0.00 | 0.00 | 0.00 | 37 | 1008.5 |
| 20260905180328 | 99 | 169 | 0.0 | 1.0 | 0.00 | 0.00 | 0.00 | 37 | 1008.5 |
| 20260905175822 | 99 | 167 | 0.0 | 3.0 | 0.00 | 0.00 | 0.00 | 38 | 1008.5 |
| 20260905175318 | 99 | 167 | 0.0 | 1.0 | 0.00 | 0.00 | 0.00 | 37 | 1008.7 |
| 20260905174818 | 99 | 172 | 0.0 | 1.0 | 0.00 | 0.00 | 0.00 | 37 | 1008.7 |
| 20260905174318 | 99 | 173 | 0.0 | 2.0 | 0.00 | 0.00 | 0.00 | 37 | 1008.7 |
| 20260905173818 | 100 | 173 | 0.0 | 2.0 | 0.00 | 0.00 | 0.00 | 37 | 1008.8 |
| 20260905173318 | 99 | 177 | 0.0 | 4.0 | 0.00 | 0.00 | 0.00 | 38 | 1008.8 |
| 20260905172818 | 99 | 177 | 0.0 | 7.0 | 0.00 | 0.00 | 0.00 | 39 | 1008.9 |
| 20260905172316 | 99 | 175 | 0.0 | 7.0 | 0.00 | 0.00 | 0.00 | 38 | 1008.9 |
| 20260905171817 | 99 | 167 | 0.0 | 3.0 | 0.00 | 0.00 | 0.00 | 39 | 1009.0 |
| 20260905171316 | 98 | 167 | 0.0 | 3.0 | 0.00 | 0.00 | 0.00 | 40 | 1009.0 |
| 20260905170816 | 98 | 167 | 0.0 | 2.0 | 0.00 | 0.00 | 0.00 | 39 | 1009.1 |
| 20260905170313 | 98 | 200 | 0.0 | 0.0 | 0.00 | 0.00 | 0.00 | 40 | 1009.1 |
| 20260905165814 | 98 | 200 | 0.0 | 1.0 | 0.00 | 0.00 | 0.00 | 40 | 1009.2 |
| 20260905165314 | 98 | 188 | 0.0 | 1.0 | 0.00 | 0.00 | 0.00 | 40 | 1009.3 |
| 20260905164814 | 98 | 181 | 0.0 | 1.0 | 0.00 | 0.00 | 0.00 | 40 | 1009.2 |
| 20260905164314 | 97 | 177 | 0.0 | 1.0 | 0.00 | 0.00 | 0.00 | 41 | 1009.3 |
| 20260905163814 | 97 | 178 | 0.0 | 5.0 | 0.00 | 0.00 | 0.00 | 41 | 1009.3 |
| 20260905163522 | 97 | 178 | 0.0 | 3.0 | 0.00 | 0.00 | 0.00 | 42 | 1009.3 |
| 20260905163511 | 97 | 177 | 0.0 | 5.0 | 0.00 | 0.00 | 0.00 | 42 | 1009.3 |
| 20260905162314 | 97 | 184 | 0.0 | 3.0 | 0.00 | 0.00 | 0.00 | 43 | 1009.4 |
| 20260905162038 | 96 | 173 | 0.0 | 1.0 | 0.00 | 0.00 | 0.00 | 44 | 1009.4 |
| 20260905161312 | 95 | 172 | 0.0 | 0.0 | 0.00 | 0.00 | 0.00 | 45 | 1009.5 |
| 20260905160811 | 95 | 172 | 0.0 | 1.0 | 0.00 | 0.00 | 0.00 | 45 | 1009.6 |
| 20260905160310 | 95 | 172 | 0.0 | 1.0 | 0.00 | 0.00 | 0.00 | 45 | 1009.6 |
| 20260905155810 | 95 | 172 | 0.0 | 2.0 | 0.00 | 0.00 | 0.00 | 45 | 1009.6 |
| 20260905155311 | 94 | 173 | 0.0 | 2.0 | 0.00 | 0.00 | 0.00 | 47 | 1009.7 |
| 20260905154808 | 94 | 191 | 0.0 | 1.0 | 0.00 | 0.00 | 0.00 | 48 | 1009.6 |
| 20260905154301 | 94 | 188 | 0.0 | 0.0 | 0.00 | 0.00 | 0.00 | 47 | 1009.5 |
| 20260905153802 | 93 | 188 | 0.0 | 0.0 | 0.00 | 0.00 | 0.00 | 49 | 1009.6 |
| 20260905153301 | 93 | 185 | 0.0 | 0.0 | 0.00 | 0.00 | 0.00 | 49 | 1009.5 |
| 20260905152801 | 92 | 187 | 0.0 | 0.0 | 0.00 | 0.00 | 0.00 | 52 | 1009.5 |
| 20260905152306 | 92 | 187 | 0.0 | 0.0 | 0.00 | 0.00 | 0.00 | 51 | 1009.4 |
| 20260905151801 | 91 | 188 | 0.0 | 0.0 | 0.00 | 0.00 | 0.00 | 52 | 1009.4 |
| 20260905151302 | 91 | 188 | 0.0 | 0.0 | 0.00 | 0.00 | 0.00 | 53 | 1009.3 |
| 20260905150802 | 90 | 188 | 0.0 | 0.0 | 0.00 | 0.00 | 0.00 | 53 | 1009.3 |
| 20260905150308 | 90 | 187 | 0.0 | 0.0 | 0.00 | 0.00 | 0.00 | 55 | 1009.4 |
| 20260905145802 | 89 | 187 | 0.0 | 1.0 | 0.00 | 0.00 | 0.00 | 56 | 1009.3 |
| 20260905145306 | 89 | 188 | 0.0 | 1.0 | 0.00 | 0.00 | 0.00 | 56 | 1009.3 |
| 20260905144801 | 88 | 173 | 0.0 | 0.0 | 0.00 | 0.00 | 0.00 | 57 | 1009.3 |
| 20260905144302 | 87 | 174 | 0.0 | 0.0 | 0.00 | 0.00 | 0.00 | 57 | 1009.3 |
| 20260905143801 | 87 | 173 | 0.0 | 0.0 | 0.00 | 0.00 | 0.00 | 58 | 1009.3 |
| 20260905143300 | 87 | 173 | 0.0 | 0.0 | 0.00 | 0.00 | 0.00 | 59 | 1009.3 |
| 20260905143246 | 86 | 173 | 0.0 | 0.0 | 0.00 | 0.00 | 0.00 | 59 | 1009.3 |
| 20260905142301 | 86 | 173 | 0.0 | 0.0 | 0.00 | 0.00 | 0.00 | 60 | 1009.3 |
| 20260905141802 | 85 | 173 | 0.0 | 0.0 | 0.00 | 0.00 | 0.00 | 61 | 1009.2 |
| 20260905141523 | 85 | 173 | 0.0 | 0.0 | 0.00 | 0.00 | 0.00 | 62 | 1009.2 |
| 20260905140802 | 84 | 173 | 0.0 | 0.0 | 0.00 | 0.00 | 0.00 | 63 | 1009.3 |
| 20260905140301 | 84 | 173 | 0.0 | 0.0 | 0.00 | 0.00 | 0.00 | 64 | 1009.2 |
| 20260905135802 | 83 | 173 | 0.0 | 0.0 | 0.00 | 0.00 | 0.00 | 65 | 1009.1 |
| 20260905135301 | 83 | 173 | 0.0 | 0.0 | 0.00 | 0.00 | 0.00 | 66 | 1009.2 |
| 20260905135242 | 82 | 173 | 0.0 | 0.0 | 0.00 | 0.00 | 0.00 | 67 | 1009.1 |
| 20260905134301 | 81 | 173 | 0.0 | 0.0 | 0.00 | 0.00 | 0.00 | 68 | 1009.1 |
| 20260905133802 | 81 | 171 | 0.0 | 0.0 | 0.00 | 0.00 | 0.00 | 69 | 1009.1 |
| 20260905133519 | 80 | 172 | 0.0 | 0.0 | 0.00 | 0.00 | 0.00 | 70 | 1009.1 |
| 20260905132801 | 79 | 173 | 0.0 | 0.0 | 0.00 | 0.00 | 0.00 | 71 | 1009.0 |
| 20260905132305 | 79 | 174 | 0.0 | 0.0 | 0.00 | 0.00 | 0.00 | 72 | 1008.9 |
| 20260905132019 | 79 | 174 | 0.0 | 0.0 | 0.00 | 0.00 | 0.00 | 73 | 1008.9 |
| 20260905131302 | 78 | 174 | 0.0 | 0.0 | 0.00 | 0.00 | 0.00 | 73 | 1008.8 |
| 20260905130757 | 78 | 173 | 0.0 | 1.0 | 0.00 | 0.00 | 0.00 | 74 | 1008.8 |
| 20260905130735 | 78 | 174 | 0.0 | 2.0 | 0.00 | 0.00 | 0.00 | 74 | 1008.7 |
| 20260905130006 | 78 | 173 | 0.0 | 2.0 | 0.00 | 0.00 | 0.00 | 75 | 1008.6 |
| 20260905125239 | 77 | 175 | 0.0 | 3.0 | 0.00 | 0.00 | 0.00 | 75 | 1008.5 |
| 20260905124740 | 77 | 178 | 0.0 | 3.0 | 0.00 | 0.00 | 0.00 | 76 | 1008.4 |
| 20260905124238 | 77 | 178 | 0.0 | 1.0 | 0.00 | 0.00 | 0.00 | 76 | 1008.4 |
| 20260905123736 | 77 | 176 | 0.0 | 1.0 | 0.00 | 0.00 | 0.00 | 76 | 1008.4 |
| 20260905123234 | 76 | 176 | 0.0 | 1.0 | 0.00 | 0.00 | 0.00 | 76 | 1008.3 |
| 20260905122732 | 76 | 176 | 0.0 | 1.0 | 0.00 | 0.00 | 0.00 | 76 | 1008.3 |
| 20260905122450 | 76 | 176 | 0.0 | 1.0 | 0.00 | 0.00 | 0.00 | 76 | 1008.2 |
| 20260905121729 | 76 | 176 | 0.0 | 0.0 | 0.00 | 0.00 | 0.00 | 76 | 1008.2 |
| 20260905121229 | 76 | 176 | 0.0 | 0.0 | 0.00 | 0.00 | 0.00 | 77 | 1008.3 |
| 20260905120729 | 76 | 176 | 0.0 | 0.0 | 0.00 | 0.00 | 0.00 | 77 | 1008.2 |
| 20260905120229 | 76 | 176 | 0.0 | 0.0 | 0.00 | 0.00 | 0.00 | 77 | 1008.2 |
| 20260905115728 | 76 | 176 | 0.0 | 0.0 | 0.00 | 0.00 | 0.00 | 77 | 1008.2 |
| 20260905115229 | 76 | 176 | 0.0 | 0.0 | 0.00 | 0.00 | 0.00 | 78 | 1008.2 |
| 20260905114728 | 75 | 176 | 0.0 | 0.0 | 0.00 | 0.00 | 0.00 | 78 | 1008.1 |
| 20260905114229 | 75 | 176 | 0.0 | 0.0 | 0.00 | 0.00 | 0.00 | 79 | 1008.2 |
| 20260905113728 | 74 | 176 | 0.0 | 0.0 | 0.00 | 0.00 | 0.00 | 81 | 1008.2 |
| 20260905113229 | 74 | 176 | 0.0 | 0.0 | 0.00 | 0.00 | 0.00 | 81 | 1008.2 |
| 20260905112945 | 74 | 176 | 0.0 | 0.0 | 0.00 | 0.00 | 0.00 | 81 | 1008.2 |
| 20260905112229 | 74 | 176 | 0.0 | 0.0 | 0.00 | 0.00 | 0.00 | 80 | 1008.2 |
| 20260905111727 | 74 | 176 | 0.0 | 0.0 | 0.00 | 0.00 | 0.00 | 80 | 1008.3 |
| 20260905111227 | 74 | 176 | 0.0 | 0.0 | 0.00 | 0.00 | 0.00 | 80 | 1008.3 |
| 20260905110725 | 74 | 176 | 0.0 | 0.0 | 0.00 | 0.00 | 0.00 | 79 | 1008.3 |
| 20260905110224 | 75 | 176 | 0.0 | 0.0 | 0.00 | 0.00 | 0.00 | 79 | 1008.3 |
| 20260905105721 | 75 | 176 | 0.0 | 0.0 | 0.00 | 0.00 | 0.00 | 79 | 1008.3 |
| 20260905105220 | 75 | 176 | 0.0 | 0.0 | 0.00 | 0.00 | 0.00 | 78 | 1008.2 |
| 20260905105202 | 75 | 176 | 0.0 | 0.0 | 0.00 | 0.00 | 0.00 | 78 | 1008.1 |
| 20260905104215 | 75 | 176 | 0.0 | 0.0 | 0.00 | 0.00 | 0.00 | 77 | 1008.2 |
| 20260905103714 | 76 | 176 | 0.0 | 0.0 | 0.00 | 0.00 | 0.00 | 77 | 1008.2 |
| 20260905103212 | 76 | 176 | 0.0 | 0.0 | 0.00 | 0.00 | 0.00 | 77 | 1008.1 |
| 20260905102710 | 76 | 176 | 0.0 | 0.0 | 0.00 | 0.00 | 0.00 | 76 | 1008.1 |
| 20260905102210 | 76 | 176 | 0.0 | 0.0 | 0.00 | 0.00 | 0.00 | 75 | 1008.1 |
| 20260905101709 | 76 | 176 | 0.0 | 0.0 | 0.00 | 0.00 | 0.00 | 75 | 1008.1 |
| 20260905101207 | 76 | 176 | 0.0 | 0.0 | 0.00 | 0.00 | 0.00 | 75 | 1008.1 |
| 20260905100926 | 77 | 176 | 0.0 | 0.0 | 0.00 | 0.00 | 0.00 | 74 | 1008.0 |
| 20260905100203 | 77 | 176 | 0.0 | 0.0 | 0.00 | 0.00 | 0.00 | 73 | 1007.9 |
| 20260905095924 | 77 | 176 | 0.0 | 0.0 | 0.00 | 0.00 | 0.00 | 73 | 1007.9 |
| 20260905095202 | 77 | 176 | 0.0 | 0.0 | 0.00 | 0.00 | 0.00 | 73 | 1007.9 |
| 20260905094701 | 77 | 176 | 0.0 | 0.0 | 0.00 | 0.00 | 0.00 | 72 | 1007.9 |
| 20260905094202 | 77 | 176 | 0.0 | 0.0 | 0.00 | 0.00 | 0.00 | 73 | 1007.9 |
| 20260905093701 | 77 | 176 | 0.0 | 0.0 | 0.00 | 0.00 | 0.00 | 73 | 1007.8 |
| 20260905093420 | 77 | 176 | 0.0 | 0.0 | 0.00 | 0.00 | 0.00 | 73 | 1007.9 |
| 20260905092658 | 77 | 176 | 0.0 | 0.0 | 0.00 | 0.00 | 0.00 | 73 | 1007.8 |
| 20260905092151 | 77 | 176 | 0.0 | 0.0 | 0.00 | 0.00 | 0.00 | 73 | 1007.8 |
| 20260905091645 | 77 | 176 | 0.0 | 0.0 | 0.00 | 0.00 | 0.00 | 73 | 1007.7 |
| 20260905091145 | 77 | 176 | 0.0 | 0.0 | 0.00 | 0.00 | 0.00 | 73 | 1007.8 |
| 20260905090643 | 77 | 176 | 0.0 | 0.0 | 0.00 | 0.00 | 0.00 | 73 | 1007.9 |
| 20260905090141 | 77 | 176 | 0.0 | 0.0 | 0.00 | 0.00 | 0.00 | 73 | 1007.8 |
| 20260905085639 | 77 | 176 | 0.0 | 0.0 | 0.00 | 0.00 | 0.00 | 72 | 1007.8 |
| 20260905085137 | 78 | 176 | 0.0 | 0.0 | 0.00 | 0.00 | 0.00 | 72 | 1007.8 |
| 20260905084855 | 78 | 176 | 0.0 | 0.0 | 0.00 | 0.00 | 0.00 | 71 | 1007.8 |
| 20260905084133 | 78 | 176 | 0.0 | 0.0 | 0.00 | 0.00 | 0.00 | 71 | 1007.8 |
| 20260905083633 | 78 | 176 | 0.0 | 0.0 | 0.00 | 0.00 | 0.00 | 71 | 1007.7 |
| 20260905083133 | 78 | 176 | 0.0 | 0.0 | 0.00 | 0.00 | 0.00 | 70 | 1007.7 |
| 20260905082629 | 79 | 176 | 0.0 | 0.0 | 0.00 | 0.00 | 0.00 | 70 | 1007.6 |
| 20260905082129 | 79 | 176 | 0.0 | 0.0 | 0.00 | 0.00 | 0.00 | 69 | 1007.6 |
| 20260905081629 | 79 | 176 | 0.0 | 0.0 | 0.00 | 0.00 | 0.00 | 68 | 1007.6 |
| 20260905081129 | 80 | 176 | 0.0 | 0.0 | 0.00 | 0.00 | 0.00 | 68 | 1007.6 |
| 20260905080629 | 80 | 176 | 0.0 | 0.0 | 0.00 | 0.00 | 0.00 | 67 | 1007.6 |
| 20260905080129 | 80 | 176 | 0.0 | 0.0 | 0.00 | 0.00 | 0.00 | 67 | 1007.6 |
| 20260905075629 | 80 | 176 | 0.0 | 0.0 | 0.00 | 0.00 | 0.00 | 66 | 1007.6 |
| 20260905075350 | 80 | 176 | 0.0 | 0.0 | 0.00 | 0.00 | 0.00 | 66 | 1007.6 |
| 20260905074629 | 80 | 176 | 0.0 | 0.0 | 0.00 | 0.00 | 0.00 | 66 | 1007.6 |
| 20260905074129 | 80 | 176 | 0.0 | 0.0 | 0.00 | 0.00 | 0.00 | 66 | 1007.6 |
| 20260905073624 | 80 | 176 | 0.0 | 0.0 | 0.00 | 0.00 | 0.00 | 66 | 1007.6 |
| 20260905073119 | 81 | 176 | 0.0 | 0.0 | 0.00 | 0.00 | 0.00 | 65 | 1007.6 |
| 20260905072619 | 81 | 176 | 0.0 | 0.0 | 0.00 | 0.00 | 0.00 | 65 | 1007.7 |
| 20260905072119 | 81 | 176 | 0.0 | 0.0 | 0.00 | 0.00 | 0.00 | 64 | 1007.6 |
| 20260905071617 | 81 | 176 | 0.0 | 0.0 | 0.00 | 0.00 | 0.00 | 64 | 1007.5 |
| 20260905071116 | 81 | 176 | 0.0 | 0.0 | 0.00 | 0.00 | 0.00 | 64 | 1007.5 |
| 20260905070613 | 81 | 176 | 0.0 | 0.0 | 0.00 | 0.00 | 0.00 | 64 | 1007.6 |
| 20260905070112 | 81 | 176 | 0.0 | 0.0 | 0.00 | 0.00 | 0.00 | 64 | 1007.6 |
| 20260905065835 | 82 | 176 | 0.0 | 0.0 | 0.00 | 0.00 | 0.00 | 64 | 1007.6 |
| 20260905065332 | 82 | 176 | 0.0 | 0.0 | 0.00 | 0.00 | 0.00 | 63 | 1007.6 |
| 20260905064609 | 83 | 176 | 0.0 | 0.0 | 0.00 | 0.00 | 0.00 | 61 | 1007.6 |
| 20260905064107 | 83 | 176 | 0.0 | 0.0 | 0.00 | 0.00 | 0.00 | 61 | 1007.6 |
| 20260905063607 | 83 | 176 | 0.0 | 0.0 | 0.00 | 0.00 | 0.00 | 61 | 1007.5 |
| 20260905063105 | 82 | 176 | 0.0 | 0.0 | 0.00 | 0.00 | 0.00 | 61 | 1007.5 |
| 20260905062603 | 82 | 176 | 0.0 | 0.0 | 0.00 | 0.00 | 0.00 | 61 | 1007.5 |
| 20260905062101 | 82 | 176 | 0.0 | 0.0 | 0.00 | 0.00 | 0.00 | 62 | 1007.5 |
| 20260905061601 | 82 | 176 | 0.0 | 0.0 | 0.00 | 0.00 | 0.00 | 62 | 1007.6 |
| 20260905061101 | 82 | 176 | 0.0 | 0.0 | 0.00 | 0.00 | 0.00 | 63 | 1007.6 |
| 20260905060601 | 82 | 176 | 0.0 | 0.0 | 0.00 | 0.00 | 0.00 | 63 | 1007.7 |
| 20260905060552 | 82 | 176 | 0.0 | 0.0 | 0.00 | 0.00 | 0.00 | 63 | 1007.7 |
| 20260905055601 | 82 | 176 | 0.0 | 0.0 | 0.00 | 0.00 | 0.00 | 62 | 1007.7 |
| 20260905055323 | 82 | 176 | 0.0 | 0.0 | 0.00 | 0.00 | 0.00 | 62 | 1007.7 |
| 20260905054601 | 82 | 176 | 0.0 | 0.0 | 0.00 | 0.00 | 0.00 | 62 | 1007.7 |
| 20260905054101 | 82 | 176 | 0.0 | 0.0 | 0.00 | 0.00 | 0.00 | 62 | 1007.7 |
| 20260905053601 | 82 | 176 | 0.0 | 0.0 | 0.00 | 0.00 | 0.00 | 62 | 1007.7 |
| 20260905053101 | 82 | 176 | 0.0 | 0.0 | 0.00 | 0.00 | 0.00 | 62 | 1007.7 |
| 20260905052601 | 82 | 176 | 0.0 | 0.0 | 0.00 | 0.00 | 0.00 | 62 | 1007.7 |
| 20260905052322 | 82 | 176 | 0.0 | 0.0 | 0.00 | 0.00 | 0.00 | 63 | 1007.7 |
| 20260905051828 | 81 | 176 | 0.0 | 0.0 | 0.00 | 0.00 | 0.00 | 64 | 1007.7 |
| 20260905051101 | 81 | 176 | 0.0 | 0.0 | 0.00 | 0.00 | 0.00 | 65 | 1007.7 |
| 20260905050601 | 81 | 176 | 0.0 | 0.0 | 0.00 | 0.00 | 0.00 | 66 | 1007.8 |
| 20260905050100 | 81 | 176 | 0.0 | 0.0 | 0.00 | 0.00 | 0.00 | 66 | 1007.7 |
| 20260905045601 | 81 | 176 | 0.0 | 0.0 | 0.00 | 0.00 | 0.00 | 66 | 1007.7 |
| 20260905045326 | 81 | 176 | 0.0 | 0.0 | 0.00 | 0.00 | 0.00 | 65 | 1007.7 |
| 20260905044602 | 81 | 176 | 0.0 | 0.0 | 0.00 | 0.00 | 0.00 | 65 | 1007.6 |
| 20260905044102 | 81 | 176 | 0.0 | 0.0 | 0.00 | 0.00 | 0.00 | 65 | 1007.6 |
| 20260905043602 | 81 | 176 | 0.0 | 0.0 | 0.00 | 0.00 | 0.00 | 65 | 1007.6 |
| 20260905043101 | 82 | 176 | 0.0 | 0.0 | 0.00 | 0.00 | 0.00 | 64 | 1007.7 |
| 20260905042827 | 82 | 176 | 0.0 | 0.0 | 0.00 | 0.00 | 0.00 | 63 | 1007.7 |
| 20260905042102 | 82 | 176 | 0.0 | 0.0 | 0.00 | 0.00 | 0.00 | 63 | 1007.7 |
| 20260905041805 | 83 | 176 | 0.0 | 0.0 | 0.00 | 0.00 | 0.00 | 62 | 1007.6 |
| 20260905041754 | 82 | 176 | 0.0 | 0.0 | 0.00 | 0.00 | 0.00 | 63 | 1007.7 |
| 20260905040602 | 83 | 176 | 0.0 | 0.0 | 0.00 | 0.00 | 0.00 | 62 | 1007.6 |
| 20260905035602 | 83 | 176 | 0.0 | 0.0 | 0.00 | 0.00 | 0.00 | 60 | 1007.7 |
| 20260905035325 | 83 | 176 | 0.0 | 0.0 | 0.00 | 0.00 | 0.00 | 60 | 1007.7 |
| 20260905034601 | 84 | 176 | 0.0 | 0.0 | 0.00 | 0.00 | 0.00 | 59 | 1007.6 |
| 20260905034100 | 84 | 176 | 0.0 | 0.0 | 0.00 | 0.00 | 0.00 | 59 | 1007.6 |
| 20260905033601 | 84 | 176 | 0.0 | 0.0 | 0.00 | 0.00 | 0.00 | 59 | 1007.6 |
| 20260905033544 | 84 | 176 | 0.0 | 0.0 | 0.00 | 0.00 | 0.00 | 58 | 1007.5 |
| 20260905032600 | 85 | 176 | 0.0 | 0.0 | 0.00 | 0.00 | 0.00 | 58 | 1007.5 |
| 20260905032100 | 85 | 176 | 0.0 | 0.0 | 0.00 | 0.00 | 0.00 | 57 | 1007.5 |
| 20260905031559 | 85 | 176 | 0.0 | 0.0 | 0.00 | 0.00 | 0.00 | 56 | 1007.5 |
| 20260905031058 | 85 | 176 | 0.0 | 0.0 | 0.00 | 0.00 | 0.00 | 56 | 1007.5 |
| 20260905031045 | 86 | 176 | 0.0 | 0.0 | 0.00 | 0.00 | 0.00 | 56 | 1007.5 |
| 20260905030056 | 86 | 176 | 0.0 | 0.0 | 0.00 | 0.00 | 0.00 | 55 | 1007.4 |
| 20260905025555 | 86 | 176 | 0.0 | 0.0 | 0.00 | 0.00 | 0.00 | 54 | 1007.4 |
| 20260905025052 | 87 | 176 | 0.0 | 0.0 | 0.00 | 0.00 | 0.00 | 54 | 1007.3 |
| 20260905024816 | 87 | 176 | 0.0 | 0.0 | 0.00 | 0.00 | 0.00 | 53 | 1007.3 |
| 20260905024049 | 87 | 176 | 0.0 | 0.0 | 0.00 | 0.00 | 0.00 | 52 | 1007.2 |
| 20260905023548 | 88 | 176 | 0.0 | 0.0 | 0.00 | 0.00 | 0.00 | 51 | 1007.0 |
| 20260905023308 | 88 | 176 | 0.0 | 0.0 | 0.00 | 0.00 | 0.00 | 51 | 1006.9 |
| 20260905022547 | 88 | 176 | 0.0 | 0.0 | 0.00 | 0.00 | 0.00 | 50 | 1006.9 |
| 20260905022045 | 88 | 176 | 0.0 | 0.0 | 0.00 | 0.00 | 0.00 | 50 | 1006.8 |
| 20260905022008 | 89 | 176 | 0.0 | 0.0 | 0.00 | 0.00 | 0.00 | 49 | 1006.6 |
| 20260905021740 | 89 | 176 | 0.0 | 0.0 | 0.00 | 0.00 | 0.00 | 50 | 1006.7 |
| 20260905020538 | 89 | 176 | 0.0 | 0.0 | 0.00 | 0.00 | 0.00 | 49 | 1006.4 |
| 20260905020036 | 89 | 176 | 0.0 | 0.0 | 0.00 | 0.00 | 0.00 | 49 | 1006.3 |
| 20260905015534 | 90 | 176 | 0.0 | 0.0 | 0.00 | 0.00 | 0.00 | 48 | 1006.2 |
| 20260905015032 | 90 | 176 | 0.0 | 0.0 | 0.00 | 0.00 | 0.00 | 48 | 1006.2 |
| 20260905014529 | 90 | 176 | 0.0 | 0.0 | 0.00 | 0.00 | 0.00 | 47 | 1006.1 |
| 20260905014035 | 90 | 176 | 0.0 | 1.0 | 0.00 | 0.00 | 0.00 | 47 | 1006.1 |
| 20260905013532 | 91 | 176 | 0.0 | 1.0 | 0.00 | 0.00 | 0.00 | 46 | 1006.1 |
| 20260905013025 | 91 | 176 | 0.0 | 0.0 | 0.00 | 0.00 | 0.00 | 46 | 1006.0 |
| 20260905012647 | 92 | 176 | 0.0 | 0.0 | 0.00 | 0.00 | 0.00 | 45 | 1006.0 |
| 20260905012643 | 92 | 176 | 0.0 | 0.0 | 0.00 | 0.00 | 0.00 | 45 | 1006.0 |
| 20260905012633 | 91 | 176 | 0.0 | 0.0 | 0.00 | 0.00 | 0.00 | 46 | 1006.0 |
| 20260905010957 | 92 | 176 | 0.0 | 0.0 | 0.00 | 0.00 | 0.00 | 44 | 1005.9 |
| 20260905010450 | 93 | 176 | 0.0 | 0.0 | 0.00 | 0.00 | 0.00 | 44 | 1005.9 |
| 20260905005950 | 93 | 176 | 0.0 | 0.0 | 0.00 | 0.00 | 0.00 | 44 | 1005.9 |
| 20260905005448 | 94 | 176 | 0.0 | 0.0 | 0.00 | 0.00 | 0.00 | 43 | 1005.9 |
| 20260905004946 | 94 | 176 | 0.0 | 0.0 | 0.00 | 0.00 | 0.00 | 43 | 1005.9 |
| 20260905004712 | 94 | 176 | 0.0 | 0.0 | 0.00 | 0.00 | 0.00 | 43 | 1005.8 |
| 20260905004211 | 94 | 176 | 0.0 | 0.0 | 0.00 | 0.00 | 0.00 | 43 | 1005.9 |
| 20260905003440 | 94 | 176 | 0.0 | 0.0 | 0.00 | 0.00 | 0.00 | 43 | 1005.9 |